• Join FlightAware (Why Join?)
  • Login
  • US Flag 
01:05PM EST


 

Airport Tracker/Info


-or-


 

Live Flight TrackerFlight Track Log ✈ N2317S ✈ 02-Oct-2013 ✈ KBTV - KHFD

Flight Track Log - Related Links

Times and Time Zones

All times are in EDT time to prevent confusion due to time zone crossing. See the N2317S flight status page for this flight to view local times or setup timezone preferences in your user account.

Time Position Orientation Groundspeed Altitude Reporting Facility
EDT Latitude Longitude Course Direction KTS MPH feet Rate Location/Type
07:15AM 44.2439 -73.1095 172° South  Level Estimated
07:16AM 44.1984 -73.0994 171° South  Level FlightAware Approximate
07:16AM 44.2636 -73.0894 172° South 139 160 5,100  Level Boston Center
07:17AM 44.1530 -73.0893 171° South  Level FlightAware Approximate
07:17AM 44.2242 -73.0861 177° South 144 166 5,700  Level Boston Center
07:18AM 44.1074 -73.0807 180° South  Level Estimated
07:18AM 44.1847 -73.0711 165° South 144 166 6,400  Level Boston Center
07:19AM 44.0618 -73.0720 171° South  Level Estimated
07:19AM 44.1492 -73.0650 173° South 149 171 7,000  Level Boston Center
07:20AM 44.0163 -73.0626 172° South  Level FlightAware Approximate
07:20AM 44.1097 -73.0589 174° South 156 180 7,700  Level Boston Center
07:21AM 43.9707 -73.0532 172° South  Level FlightAware Approximate
07:21AM 44.0700 -73.0497 171° South 156 180 8,400  Level Boston Center
07:22AM 44.0306 -73.0436 174° South 151 174 9,000 600 Climbing Boston Center
07:23AM 43.9953 -73.0375 173° South 146 168 9,700 600 Climbing Boston Center
07:24AM 43.9556 -73.0314 174° South 140 161 10,300 600 Climbing Boston Center
07:25AM 43.9139 -73.0222 171° South 140 161 11,000 600 Climbing Boston Center
07:26AM 43.8744 -73.0161 174° South 140 161 11,600 420 Climbing Boston Center
07:27AM 43.8306 -73.0100 174° South 145 167 11,900 120 Climbing Boston Center
07:28AM 43.7828 -73.0036 174° South 167 192 11,900  Level Boston Center
07:29AM 43.7308 -72.9947 173° South 181 208 11,900  Level Boston Center
07:30AM 43.6744 -72.9856 173° South 190 219 11,900  Level Boston Center
07:31AM 43.6244 -72.9736 170° South 190 219 12,000  Climbing Boston Center
07:32AM 43.5725 -72.9672 175° South 190 219 12,000 -60 Level Boston Center
07:33AM 43.5225 -72.9583 173° South 190 219 11,900  Descending Boston Center
07:34AM 43.4706 -72.9464 171° South 185 213 12,000  Climbing Boston Center
07:35AM 43.4206 -72.9375 173° South 185 213 11,900  Descending Boston Center
07:36AM 43.3706 -72.9286 173° South 180 207 12,000  Climbing Boston Center
07:37AM 43.3183 -72.9194 173° South 180 207 12,000  Level Boston Center
07:38AM 43.2664 -72.9133 175° South 180 207 12,000  Level Boston Center
07:39AM 43.2122 -72.9044 173° South 185 213 12,000 -60 Level Boston Center
07:40AM 43.1581 -72.8928 171° South 196 226 11,900  Descending Boston Center
07:41AM 43.1019 -72.8836 173° South 196 226 12,000  Climbing Boston Center
07:42AM 43.0497 -72.8747 173° South 196 226 11,900 -60 Descending Boston Center
07:43AM 42.9956 -72.8658 173° South 196 226 11,900  Level Boston Center
07:44AM 42.9436 -72.8569 173° South 196 226 12,000 60 Climbing Boston Center
07:44AM 42.9061 -72.8511 173° South 205 236 12,000 -120 Level Boston Center
07:45AM 42.8875 -72.8453 167° South 196 226 11,900 -420 Descending Boston Center
07:45AM 42.8311 -72.8364 173° South 214 246 11,500 -420 Descending Boston Center
07:46AM 42.8292 -72.8364 180° South 201 231 11,500 -480 Level Boston Center
07:46AM 42.7769 -72.8275 173° South 211 243 11,100 -540 Descending Boston Center
07:47AM 42.7708 -72.8275 180° South 201 231 11,000 -300 Descending Boston Center
07:47AM 42.7208 -72.8189 173° South 205 236 10,800 -240 Descending Boston Center
07:48AM 42.7144 -72.8158 161° South 201 231 10,800 -480 Level Boston Center
07:49AM 42.6561 -72.8072 174° South 206 237 10,300 -480 Descending Boston Center
07:50AM 42.5978 -72.7983 174° South 209 241 9,900 -420 Descending Boston Center
07:50AM 42.6042 -72.7956 18° North 211 243 9,900  Level Boston Center
07:50AM 42.5500 -72.7894 175° South 196 226 9,900  Level Boston Center
07:51AM 42.5458 -72.7839 136° Southeast 206 237 9,900  Level Boston Center
07:51AM 42.4978 -72.7753 172° South 181 208 9,900  Level Boston Center
07:52AM 42.5019 -72.7725 26° Northeast 191 220 9,900  Level Boston Center
07:52AM 42.4500 -72.7664 175° South 181 208 9,900  Level Boston Center
07:53AM 42.4458 -72.7581 124° Southeast 191 220 9,900  Level Boston Center
07:54AM 42.4019 -72.7439 167° South 184 212 9,900 -180 Level Boston Center
07:54AM 42.3894 -72.7436 179° South 186 214 9,700 -660 Descending Boston Center
07:54AM 42.3500 -72.7322 168° South 187 215 9,300 -480 Descending Boston Center
07:55AM 42.3458 -72.7267 135° Southeast 184 212 9,300 -540 Level Boston Center
07:56AM 42.3000 -72.7181 172° South 184 212 8,800 -540 Descending Boston Center
07:56AM 42.3000 -72.7153 90° East 184 212 8,800 -540 Level Boston Center
07:57AM 42.2458 -72.7064 173° South 183 211 8,300 -540 Descending Boston Center
07:57AM 42.2458 -72.7008 90° East 184 212 8,300 -540 Level Boston Center
07:58AM 42.1917 -72.6922 173° South 192 221 7,800 -540 Descending Boston Center
07:58AM 42.2000 -72.6894 14° North 184 212 7,800 -480 Level Boston Center
07:59AM 42.1500 -72.6753 168° South 184 212 7,300 -540 Descending Boston Center
07:59AM 42.0981 -72.6722 178° South 177 204 6,800 -540 Descending Boston Center
08:00AM 42.0500 -72.6639 173° South 178 205 6,300 -480 Descending Boston Center
08:01AM 42.0022 -72.6553 172° South 164 189 5,900 -240 Descending Boston Center
08:02AM 41.9583 -72.6467 172° South 151 174 5,900 -180 Level Boston Center
08:03AM 41.9208 -72.6411 174° South 153 176 5,600 -480 Descending Boston Center
08:04AM 41.8750 -72.6353 175° South 160 184 5,000 -660 Descending Boston Center
08:06AM 41.8272 -72.6156 163° South 163 188 4,200 -720 Descending Boston Center
08:07AM 41.7875 -72.6044 168° South 163 188 3,600 -720 Descending Boston Center
08:07AM 41.7439 -72.6042 180° South 154 177 2,900 -780 Descending Boston Center
08:08AM 41.7064 -72.6042 180° South 134 154 2,100 -840 Descending Boston Center
08:09AM 41.6917 -72.6375 239° Southwest 100 115 1,300 -780 Descending Boston Center
08:10AM 41.7103 -72.6569 322° Northwest 94 108 600 -720 Descending Boston Center